Regional Weather Roundup
Issued by NWS

Home | Current Version | Previous Version | Text Only | Print | Product List | Glossary On
Versions: 1 2 3 4 5 6 7 8 9 10 11 12 13 14 15 16 17 18 19 20 21 22 23 24 25 26 27 28 29 30 31 32 33 34 35 36 37 38 39 40 41 42 43 44 45 46 47 48 49 50
000
ASHW40 PHFO 161512
RWRHI

WEATHER ROUNDUP FOR HAWAII
NATIONAL WEATHER SERVICE HONOLULU HI
500 AM HST MON JAN 16 2017

THIS IS AN AUTOMATED REPORT THAT HAS NOT BEEN QUALITY CONTROLLED.

NOTE..."FAIR" INDICATES FEW OR NO CLOUDS BELOW 12,000 FEET WITH NO
SIGNIFICANT WEATHER AND/OR OBSTRUCTIONS TO VISIBILITY.

* - THESE SITES REPORT LIMITED FIELDS

HIZ001>004-161600-
KAUAI-NIIHAU-

CITY           SKY/WX    TMP DP  RH WIND       PRES   REMARKS
LIHUE APT      MOCLDY    69  66  90 W3        30.06R
PORT ALLEN*      N/A     64 N/A N/A N7          N/A
POIPU*           N/A     68 N/A N/A N2          N/A
PRINCEVILLE*     N/A     66 N/A N/A S3          N/A
KOKOLE POINT*  NOT AVBL
MOLOAA DAIRY*    N/A     70  66  88 SE2         N/A
WAIMEA HTS*    NOT AVBL
PUU OPAE*      NOT AVBL
PUU LUA*       NOT AVBL
MAKAHA RIDGE*  NOT AVBL
$$

HIZ005>011-161600-
OAHU-

CITY           SKY/WX    TMP DP  RH WIND       PRES   REMARKS
HONOLULU       PTCLDY    69  64  84 CALM      30.04R
KALAELOA       PTCLDY    68  63  84 NE3       30.05S
KANEOHE MCB    NOT AVBL
WHEELER FIELD  FAIR      61  61 100 NW3       30.05S
BELLOWS*       NOT AVBL
KAHUKU*        NOT AVBL
WHEELER*       NOT AVBL
WAIANAE HARBOR NOT AVBL
DILLINGHAM*      N/A     59  55  88 MISG        N/A
KAHUKU TRN*      N/A     84  79  84 NW3G14      N/A  HX  96
KAWAILOA*        N/A     66  63  88 NE1G7       N/A
KII*             N/A     73  66  78 E15         N/A
MAKUA RANGE*     N/A     81  77  89 NW6         N/A
OAHU FOREST NW NOT AVBL
SCHOFIELD BRK*   N/A     61  61 100 MISG        N/A
SCHOFIELD S*   NOT AVBL
WAIANAE VLY*   NOT AVBL
KUAOKALA*      NOT AVBL
HONOULIUULI*   NOT AVBL
MOKUOLOE IS*   NOT AVBL
PALEHUA*       NOT AVBL
WAIAWA PHB*    NOT AVBL
$$

HIZ012>013-161600-
MOLOKAI-

CITY           SKY/WX    TMP DP  RH WIND       PRES   REMARKS
MOLOKAI AIRPT  CLEAR     75  60  59 E9        30.05F
KALAUPAPA      NOT AVBL
MAKAPULAPAI*   NOT AVBL
MOLOKAI 1*     NOT AVBL
PUU ALII*      NOT AVBL
$$

HIZ016-161600-
KAHOOLAWE-

CITY           SKY/WX    TMP DP  RH WIND       PRES   REMARKS
KAHOOLAWE*     NOT AVBL
HAKIOAWA*      NOT AVBL
HONOKANAIA*      N/A     74  64  70 NE15G26   29.97F
KANELOA*         N/A     70  63  78 E17G30    30.09
KEALIALALO*    NOT AVBL
LUA MAKIKA*    NOT AVBL
$$

HIZ014>015-161600-
LANAI-

CITY           SKY/WX    TMP DP  RH WIND       PRES   REMARKS
LANAI CITY     CLOUDY    66  62  87 CALM      30.10S
LANAI 1*       NOT AVBL
$$

HIZ017>028-161600-
MAUI-

CITY           SKY/WX    TMP DP  RH WIND       PRES   REMARKS
KAHULUI        PTCLDY    65  60  84 SE6       30.04R
KAPALUA-W MAUI NOT AVBL
HANA AIRPORT   PTCLDY    70  64  83 SE6       30.08S
HANA*            N/A     72 N/A N/A SE6         N/A
HALEAKALA SUMM   N/A     46   0  14 E43         N/A
MAALAEA BAY*   NOT AVBL
HALEAKALA*     NOT AVBL
KAUPO GAP*     NOT AVBL
KULA 1*          N/A     62   0   8 E9G25       N/A
$$

HIZ023>026-161600-
BIG ISLAND OF HAWAII COAST AND LOWER SLOPES-

CITY           SKY/WX    TMP DP  RH WIND       PRES   REMARKS
KAILUA KONA    CLEAR     70  64  81 E5        30.01F
HILO           MOCLDY    66  58  75 SW8       30.08S
HONOKAA*         N/A     63 N/A N/A VRB1        N/A
KAWAIHAE MWT*  NOT AVBL
KAWAIHAE*        N/A     72 N/A N/A NE6       30.02S
SOUTH POINT*     N/A     66 N/A N/A N17G24      N/A
UPOLU AIRPORT* NOT AVBL
KAMUELA*       SUNNY     52  52 100 E7        30.12S
HAKALAU*         N/A     48  12  23 SW5G10      N/A
KALOKO-HONOKO* NOT AVBL
PALI 2*          N/A     55  52  88 E3G10       N/A
KEALAKOMO*       N/A     72  61  68 VRB13G18    N/A
KAUPULEHU*     NOT AVBL
KAPAPALA*      NOT AVBL
LOWER KAHUKU*  NOT AVBL
PUHE CS*       NOT AVBL
PUHO CS*       NOT AVBL
PTA KEAMUKU*     N/A     54  48  82 CALM        N/A
WAIKOLOA*      NOT AVBL
$$

HIZ027>028-161600-
BIG ISLAND OF HAWAII INTERIOR AND SUMMMITS-

CITY           SKY/WX    TMP DP  RH WIND       PRES   REMARKS
BRADSHAW FIELD CLOUDY    54   6  14 S9        30.31F
MK VISITOR CEN   N/A     50  -6  10 E16         N/A
MAUNA KEA*       N/A     28 -11  17 NE38        N/A  WCI  11
MAUNA LOA*     NOT AVBL
MAUNA LOA 1*   NOT AVBL
PTA KIPUKA*      N/A    N/A N/A N/A SE6G18      N/A
PTA RANGE 17*    N/A    N/A N/A N/A SE18G28     N/A
PTA WEST*        N/A     50  46  87 E5G12       N/A
NENE CABIN*    NOT AVBL
AHUMOA*        NOT AVBL
PTA PORTABLE*  NOT AVBL
PUU MALI*        N/A     63 N/A N/A SE22G36     N/A
$$

HIC003-161600-
NORTHWEST ISLANDS-

CITY           SKY/WX    TMP DP  RH WIND       PRES   REMARKS
MIDWAY ISLAND  PTCLDY    72  70  94 W18       29.74R
MIDWAY NOS*    NOT AVBL
FRENCH FRIGATE NOT AVBL
$$

PHZ110>124-180-161600-
BUOY REPORTS

STATION/POSITION TIME  TEMP    WIND        PRES    WAVE   SWELL
                       AIR SEA DIR/SP/G            HT/PER HT/DIR
                 (UTC) (F)     (DEG/KT/KT) (MB)    (FT/S) (FT/D)
BUOY 51001       1450   74 76  200/  8/ 10 1017.0R   8/11   8/300
BUOY 51101       1450   74 75  200/  8/ 10 1017.6R   8/12   8/290
BUOY 51100       NOT AVBL
BUOY 51002       1450   77 78   70/ 19/ 25 1015.0R   8/ 9   5/ 90
BUOY 51003       1450   76 77   70/ 10/ 14 1016.5R   7/11   7/320
BUOY 51004       1350   70 77   60/ 17/ 21 1015.8    8/ 9   7/100
BARBERS PT BUOY  NOT AVBL
WAIMEA BAY BUOY  1402      75                N/A     6/13   5/330
KAILUA BAY BUOY  1434      76                N/A     5/ 9   2/350
LANAI BUOY       1445      78                N/A     4/12   2/280
BARBERS PT 2     1439      77                N/A     6/12   3/320
PAUWELA MAUI     1439      76                N/A     7/ 9   3/320
HILO             1442      76                N/A     7/ 9   2/350
KANEOHE BAY BUOY 1436      76                N/A     5/10   2/340
HANALEI KAUAI    1452      77                N/A     7/12   5/320
KAHULUI HARBOR   1442   67 77  120/  3/  5 1017.1R
HONOLULU HARBOR  1442   74 77   60/  2/  3 1017.8S
KILO NALU        NOT AVBL
HILO HARBOR      1442   67 75  200/  8/  9 1018.3R
MOKUOLOE         1436   74      90/  7/ 11   N/A
NAWILIWILI       1448   69     250/  4/  4 1017.4R
WHOTS BUOY       NOT AVBL
BUOY 51028       NOT AVBL
$$

......................KEY........................................
  SKY/WX - SKY CONDITIONS/PRESENT WEATHER
  TMP    - TEMPERATURE IN FAHRENHEIT
  DWPT   - DEWPOINT IN FAHRENHEIT
  RH     - RELATIVE HUMIDITY IN PERCENT
  WIND   - DIRECTION AND SPEED /MPH FOR ISLANDS...KTS FOR BUOYS/
  PRES   - MEAN SEA LEVEL PRESSURE IN INCHES OF HG
  VSB    - VISIBILITY IN MILES
  HX     - HEAT INDEX
  WCI    - WIND CHILL INDEX
  VRB    - VARIABLE WIND DIRECTION
  N/A    - NOT AVAILABLE




USA.gov is the U.S. government's official web portal to all federal, state and local government web resources and services.